Regional Weather Roundup
Issued by NWS

Home | Current Version | Previous Version | Text Only | Print | Product List | Glossary Off
Versions: 1 2 3 4 5 6 7 8 9 10 11 12 13 14 15 16 17 18 19 20 21 22 23 24 25 26 27 28 29 30 31 32 33 34 35 36 37 38 39 40 41 42 43 44 45 46 47 48 49 50

261
ASUS43 KBIS 132310
RWRND

NORTH DAKOTA REGIONAL WEATHER ROUNDUP
NATIONAL WEATHER SERVICE BISMARCK ND
500 PM CST SAT FEB 13 2016

NOTE: "FAIR" INDICATES FEW OR NO CLOUDS BELOW 12,000 FEET WITH NO
SIGNIFICANT WEATHER AND/OR OBSTRUCTIONS TO VISIBILITY.


NDZ001>003-009>011-017-140000-
NORTHWEST NORTH DAKOTA

CITY           SKY/WX    TMP DP  RH WIND       PRES   REMARKS
WILLISTON      HVY SNOW  20  17  88 SE8       29.81S VSB 1/4 WCI  10
MINOT          LGT SNOW  18   9  68 SE14      29.89F VSB 3/4 WCI   4
MINOT AFB      CLOUDY    17  11  77 SE16      29.89F WCI   2
$$

NDZ018>021-031>035-040>046-140000-
SOUTHWEST NORTH DAKOTA

CITY           SKY/WX    TMP DP  RH WIND       PRES   REMARKS
BISMARCK       LGT SNOW  18  11  74 SE18      29.96F WCI   2
DICKINSON      CLOUDY    21  17  84 S14       29.80S WCI   8
GARRISON         N/A     14  10  84 SE17      29.88F WCI  -3
HETTINGER ARPT LGT SNOW  22  19  89 SE6       29.85S FOG     WCI  14
$$

NDZ004>008-012>016-024-026-027-054-140000-
NORTHEAST NORTH DAKOTA

CITY           SKY/WX    TMP DP  RH WIND       PRES   REMARKS
GRAND FORKS    CLOUDY    10  -1  61 SE21      30.23F WCI  -9
GRND FRKS AFB  CLOUDY    10   0  61 S18       30.20F WCI  -8
DEVILS LAKE    CLOUDY     8   1  73 SE18      30.06F WCI -11
$$

NDZ022-023-025-028>030-036>039-047>053-140000-
SOUTHEAST NORTH DAKOTA

CITY           SKY/WX    TMP DP  RH WIND       PRES   REMARKS
FARGO          CLOUDY    13   0  56 SE21      30.23F WCI  -5
JAMESTOWN      CLOUDY     9   1  70 SE20      30.06F WCI -10
$$





USA.gov is the U.S. government's official web portal to all federal, state and local government web resources and services.